COSMOS 1536

Last updated on Tue Sep 16 2025 00:02:14 GMT+0000 (Coordinated Universal Time)

1 14699U 84013A 25258.55822476 .00005913 00000+0 26598-3 0 9996 2 14699 82.5438 281.5122 0016093 169.3996 190.7582 15.20798351245974
UTC large
Height (km)
Speed (km/s)
/
Latitude / Longitude
Inclination (degrees)
Orbital Period (minutes)
Azimuth
Elevation
Range (km)
Doppler Factor

Next 0 passes for location: London (51.5072 / 0.1276)

Sorry there are no passes over London.